Tracking 19709 objects as of 19-Jun-2019
HD Live streaming from Space Station
objects crossing your sky now

DELTA 1 DEB

Track DELTA 1 DEB now!
10-day predictions


NORAD ID: 7145
Int'l Code: 1973-086DK
Perigee: 1,514.2 km
Apogee: 2,029.6 km
Inclination: 102.0 °
Period: 121.9 minutes
Semi major axis: 8142 km
RCS: 0.3002 m2 (medium)
Launch date: November 6, 1973
Source: United States (US)
Launch site: AIR FORCE WESTERN TEST RANGE (AFWTR)

Note: This is SATELLITE DEBRIS
aabbcc
Your satellite tracking list
Your tracking list is empty




NASA's NSSDC Master Catalog

Two Line Element Set (TLE):
1  7145U 73086DK  19169.23001122  .00000385  00000-0  57202-2 0  9992
2  7145 101.9932 244.5367 0316492   8.9265   8.3037 11.81502409967239
Source of the keplerian elements: AFSPC